#timestamp,LO_Frequency,Hit,StdDev 
1639663215.1,286046998.3,N
1639663235.8,286046998.3,N
1639663255.7,286046998.6,N
1639663275.5,286047001.2,N
1639663295.4,286046999.8,N
1639663315.2,286047000.6,N
1639663335.0,286046998.2,N
1639663335.9,286046998.2,N
1639663355.8,286047000.4,N
1639663375.6,286047000.9,N
1639663395.5,286047000.9,N
1639663415.3,286047001.2,N
1639663435.1,286047000.8,N
1639663455.9,286047001.0,N
1639663475.7,286047000.3,N
1639663495.5,286046998.7,N
1639663515.4,286047001.1,N
1639663535.2,286047000.8,N
1639663555.1,286046996.8,N
1639663556.0,286046996.8,N
1639663575.8,286046999.1,N
1639663595.6,286046999.4,N
1639663615.5,286046998.8,N
1639663635.3,286046998.3,N
1639663655.1,286046998.6,N
1639663675.9,286047000.9,N
1639663695.7,286047000.5,N
1639663715.6,286047001.1,N
1639663735.4,286046999.8,N
1639663755.2,286047002.8,N
1639663775.1,286047001.8,N
1639663776.0,286047001.8,N
1639663795.8,286047002.5,N
1639663815.6,286047002.7,N
1639663835.5,286047001.4,N
1639663855.3,286047004.1,N
1639663875.2,286047001.3,N
1639663895.9,286047001.7,N
1639663915.7,286047002.3,N
1639663935.6,286047000.0,N
1639663955.4,286047002.4,N
1639663975.3,286047000.0,N
1639663995.1,286047000.5,N
1639663996.0,286047000.5,N
1639664015.8,286046998.1,N
1639664035.7,286046998.9,N
1639664055.5,286046998.7,N
1639664075.3,286046999.0,N
1639664095.2,286046997.1,N
1639664115.0,286046997.1,N
1639664115.9,286046997.1,N
1639664135.8,286046997.0,N
1639664155.6,286046995.2,N
1639664175.4,286046997.8,N
1639664195.3,286046994.9,N
1639664215.1,286046996.5,N
1639664235.9,286046999.0,N
1639664255.7,286046999.1,N
1639664275.5,286047000.7,N
1639664295.4,286047001.2,N
1639664315.2,286047000.5,N
1639664335.0,286046998.7,N
1639664336.0,286046998.7,N
1639664355.8,286046999.5,N
1639664375.6,286047001.2,N
1639664395.5,286047001.2,N
1639664415.3,286047000.5,N
1639664435.1,286046998.4,N
1639664455.9,286046999.5,N
1639664475.7,286047001.0,N
1639664495.6,286046998.8,N
1639664515.4,286046998.7,N
1639664535.2,286047001.0,N
1639664555.1,286046999.1,N
1639664556.0,286046999.1,N
1639664575.8,286046998.9,N
1639664595.6,286046999.0,N
1639664615.5,286046999.5,N
1639664635.3,286046998.6,N
1639664655.2,286046997.1,N
1639664675.0,286046996.5,N
1639664675.9,286046996.5,N
1639664695.7,286046999.3,N
1639664715.6,286046999.4,N
1639664735.4,286046998.1,N
1639664755.3,286046998.2,N
1639664775.1,286046999.3,N
1639664776.0,286046999.3,N
1639664795.8,286046996.7,N
1639664815.7,286046997.7,N
1639664835.5,286046999.2,N
1639664855.3,286046998.4,N
1639664875.2,286047000.7,N
1639664895.0,286047000.9,N
1639664895.9,286047000.9,N
1639664915.8,286047001.5,N
1639664935.6,286047002.3,N
1639664955.4,286047004.4,Y
1639664975.3,286047002.4,P
1639664995.1,286047002.7,N
1639665015.9,286047001.9,N
1639665035.7,286047004.2,N
1639665055.5,286047003.8,N
1639665075.4,286047004.1,N
1639665095.2,286047002.2,N
1639665115.0,286047001.1,N
1639665115.9,286047001.1,N
1639665135.8,286047000.8,N
1639665155.6,286047000.9,N
1639665175.5,286047001.1,N
1639665195.3,286046996.8,N
1639665215.1,286046999.1,N
1639665235.9,286046999.4,N
1639665255.7,286046999.4,N
1639665275.5,286046998.5,N
1639665295.4,286047000.4,N
1639665315.2,286047001.6,N
1639665335.1,286047002.1,N
1639665336.0,286047002.1,N
1639665355.8,286047000.1,N
1639665375.6,286047002.3,N
1639665395.5,286047000.5,N
1639665415.3,286046998.6,N
1639665435.1,286047000.9,N
1639665455.9,286047000.8,N
1639665475.7,286047000.2,N
1639665495.6,286047000.3,N
1639665515.4,286046999.7,N
1639665535.2,286046999.8,N
1639665555.1,286047002.2,N
1639665556.0,286047002.2,N
1639665575.8,286047000.2,N
1639665595.7,286047000.3,N
1639665615.5,286047001.1,N
1639665635.3,286047002.8,N
1639665655.2,286046999.9,N
1639665675.9,286047001.0,N
1639665695.7,286047000.6,N
1639665715.6,286047000.4,N
1639665735.4,286047000.9,N
1639665755.2,286046998.2,N
1639665775.1,286046999.9,N
1639665776.0,286046999.9,N
1639665795.8,286047000.0,N
1639665815.7,286047002.8,N
1639665835.5,286047000.9,N
1639665855.3,286047000.3,N
1639665875.2,286046999.4,N
1639665895.0,286046999.0,N
1639665895.9,286046999.0,N
1639665915.8,286046998.2,N
1639665935.6,286046997.1,N
1639665955.4,286046995.2,Y
1639665975.3,286046996.2,P
1639665995.1,286046995.9,N
1639666015.8,286046997.9,N
1639666035.7,286046997.8,N
1639666055.5,286046997.1,N
1639666075.4,286046998.3,N
1639666095.2,286047001.2,N
1639666115.0,286046998.3,N
1639666115.9,286046998.3,N
1639666135.8,286046998.1,N
1639666155.6,286047000.3,N
1639666175.5,286047000.3,N
1639666195.3,286046998.2,N
1639666215.1,286046996.7,N
1639666235.9,286046997.0,N
1639666255.7,286046996.8,N
1639666275.5,286046999.0,N
1639666295.4,286047001.2,N
1639666315.2,286046998.1,N
1639666335.1,286047000.0,N
1639666336.0,286047000.0,N
1639666355.8,286047001.2,N
1639666375.6,286046999.2,N
1639666395.5,286046996.6,N
1639666415.3,286047001.2,N
1639666435.1,286047001.0,N
1639666455.9,286047000.9,N
1639666475.7,286046998.1,N
1639666495.6,286047000.6,N
1639666515.4,286046999.9,N
1639666535.2,286047000.4,N
1639666555.1,286047000.0,N
1639666556.0,286047000.0,N
1639666575.8,286047002.3,N
1639666595.6,286047002.7,N
1639666615.5,286047000.4,N
1639666635.3,286047000.5,N
1639666655.2,286046999.9,N
1639666675.9,286047000.9,N
1639666695.7,286047000.6,N
1639666715.6,286047000.4,N
1639666735.4,286047000.7,N
1639666755.2,286046999.1,N
1639666775.1,286046999.2,N
1639666776.0,286046999.2,N
1639666795.8,286046997.8,N
